2018-083A (43662 NORAD) Tracking and Keplerian Element Data

This shows tracking and keplerian element data for the satellite.

Feedback or suggestion? Click here.




ElementValue
Catalog43662
Name2018-083A
Epoch Orbit461
Epoch Day332.45517319
Epoch Year2018
RAAN353.0952
Inclination97.5262
Eccentricity0.0001511
Argument of Perigee81.3189
Mean Anonmoly57.6564
Mean Motion15.16340728
Decay Rate4.13E-06
L11 43662U 18083A 18332.45517319 .00000413 00000-0 24716-4 0 9995
L22 43662 97.5262 353.0952 0001511 81.3189 57.6564 15.16340728 4610

Live tracking and technical data element details for 2018-083A (NORAD 43662). 2018-083A can be tracked NOW for your location showing map with azimuth and elevation plus other details from your city location.

Track the satellite on the map from your city or location and see movement details for azimuth, elevation, latitude, longitude, range, height, and movement on the map or in text.







IsCatalogInMostPopularTable: catalog: 43662, numindb: 80
Update: records affected: 1



GetName: 43662 2018-083A

Hit Count: updated at: Thu, 25 Apr 2019 20:43:42 GMT